Location: ???? ??????? ????
(31.2176°N, 31.6797°E)
Time: 02:10:20
(UTC+00:00)

Cosmos 1400 Rocket - Pass Details

Date: 29 October 2020
Orbit: 521 x 568 km, 81.2° (Epoch: 25 November)

Event Time Altitude Azimuth Distance (km) Brightness Sun altitude
Rises 15:26:14 0° 183° (S) 2,751 6.6 -4.8°
Reaches altitude 10° 15:28:25 10° 182° (S) 1,856 5.7 -5.3°
Maximum altitude 15:32:30 77° 97° (E) 584 2.8 -6.1°
Drops below altitude 10° 15:36:36 10° 11° (N) 1,853 5.3 -7.0°
Sets 15:38:46 0° 10° (N) 2,746 6.2 -7.4°
